Temp
-9 -9 -9 -9 -9 -9 -9 -9 -10 -9 -9 -9 -9 -10 -10 -10 -10 -10 -10 -10 -10 -10 -10 -10 -10 -10 -10 -10 -10 -10 -10 -10 -10 -10 -10 -10 -10 -10 -10 -10 -10 -10 -10 -10 -10 -10 -10 -10 -9
-9 -9 -9 -9 -9 -9 -9 -9 -9 -9 -9 -9 -9 -9 -10 -10 -10 -10 -10 -10 -10 -10 -9 -9 -10 -10 -10 -10 -10 -10 -10 -10 -10 -10 -10 -10 -10 -10 -10 -10 -10 -10 -10 -10 -10 -10 -10 -10 -10
-9 -9 -9 -9 -9 -9 -9 -9 -9 -9 -9 -9 -10 -10 -10 -9 -9 -9 -9 -10 -9 -10 -10 -9 -9 -9 -9 -10 -10 -10 -10 -10 -10 -10 -10 -10 -10 -10 -10 -10 -10 -10 -9 -9 -9 -10 -10 -10 -9
-9 -9 -8 -8 -9 -9 -9 -9 -9 -9 -9 -9 -10 -10 -10 -10 -9 -9 -9 -9 -9 -9 -9 -9 -9 -9 -9 -9 -9 -10 -10 -10 -10 -10 -10 -9 -10 -9 -9 -9 -9 -9 -9 -9 -9 -9 -10 -10 -10
-8 -9 -9 -8 -9 -8 -9 -9 -9 -9 -9 -9 -9 -10 -9 -10 -10 -9 -9 -9 -9 -9 -9 -9 -9 -9 -9 -9 -9 -9 -9 -9 -9 -9 -9 -9 -9 -9 -9 -9 -9 -9 -9 -9 -9 -9 -9 -9 -9
-9 -9 -9 -9 -9 -9 -9 -9 -9 -9 -9 -9 -9 -9 -9 -9 -9 -9 -9 -9 -9 -9 -9 -9 -9 -9 -9 -9 -9 -9 -9 -9 -9 -9 -9 -9 -9 -9 -9 -9 -9 -9 -9 -9 -9 -9 -9 -9 -9
-9 -9 -9 -9 -9 -9 -9 -9 -9 -9 -10 -9 -9 -10 -9 -9 -9 -9 -9 -9 -9 -9 -9 -9 -9 -9 -9 -9 -9 -9 -9 -9 -9 -9 -9 -9 -9 -9 -9 -9 -9 -9 -9 -9 -9 -9 -9 -9 -9
-10 -10 -10 -10 -10 -10 -10 -9 -9 -9 -10 -10 -10 -10 -10 -9 -9 -9 -9 -9 -9 -9 -9 -9 -9 -9 -9 -9 -9 -9 -9 -9 -9 -9 -9 -9 -9 -9 -9 -9 -9 -9 -9 -9 -9 -9 -9 -9 -9
-10 -10 -10 -10 -10 -10 -10 -10 -10 -10 -9 -10 -10 -10 -10 -10 -10 -9 -9 -9 -9 -9 -9 -9 -9 -9 -9 -9 -9 -9 -9 -9 -9 -9 -9 -9 -9 -9 -9 -9 -9 -9 -9 -9 -9 -9 -9 -9 -9
-9 -10 -10 -10 -10 -10 -10 -10 -10 -10 -10 -10 -9 -10 -10 -10 -10 -10 -10 -10 -9 -9 -9 -9 -9 -9 -9 -9 -9 -9 -9 -9 -9 -9 -9 -9 -9 -9 -9 -9 -9 -9 -9 -9 -9 -9 -9 -9 -9
-9 -10 -10 -10 -10 -10 -10 -10 -10 -10 -10 -10 -10 -9 -9 -10 -10 -10 -10 -10 -10 -9 -9 -9 -9 -9 -9 -9 -9 -9 -9 -9 -9 -9 -9 -9 -9 -9 -9 -9 -9 -9 -9 -9 -9 -9 -9 -9 -9
-9 -10 -10 -10 -10 -10 -10 -10 -10 -9 -11 -10 -10 -10 -10 -10 -10 -10 -10 -10 -10 -10 -10 -10 -9 -9 -9 -9 -9 -9 -9 -9 -9 -9 -9 -9 -9 -10 -10 -9 -9 -9 -9 -9 -9 -9 -9 -9 -9
-10 -10 -10 -10 -10 -10 -10 -10 -10 -10 -11 -11 -10 -10 -10 -10 -10 -10 -10 -10 -10 -10 -10 -10 -9 -10 -9 -9 -9 -9 -9 -9 -9 -9 -9 -9 -9 -10 -10 -9 -9 -9 -9 -9 -9 -9 -9 -9 -9
-10 -10 -10 -10 -11 -11 -10 -10 -10 -11 -11 -11 -11 -11 -10 -10 -10 -10 -10 -10 -10 -10 -10 -9 -9 -9 -9 -9 -9 -9 -9 -9 -9 -9 -9 -9 -9 -9 -9 -10 -10 -10 -10 -10 -10 -10 -10 -10 -9
-10 -10 -10 -10 -11 -11 -11 -9 -10 -11 -11 -11 -11 -11 -11 -11 -10 -10 -10 -10 -10 -10 -9 -10 -9 -9 -9 -9 -9 -9 -9 -10 -10 -10 -9 -9 -10 -10 -10 -10 -10 -10 -10 -10 -9 -10 -9 -9 -10
-10 -10 -11 -11 -11 -11 -11 -9 -10 -11 -11 -11 -11 -11 -11 -11 -10 -11 -11 -10 -10 -10 -10 -9 -10 -9 -9 -9 -9 -10 -10 -10 -10 -10 -10 -10 -10 -10 -10 -10 -10 -10 -10 -10 -10 -10 -10 -10 -10
-11 -11 -11 -11 -10 -11 -11 -10 -10 -10 -10 -10 -10 -11 -11 -11 -11 -11 -10 -10 -10 -10 -10 -10 -10 -10 -10 -9 -9 -9 -9 -10 -10 -10 -10 -10 -10 -10 -10 -10 -10 -10 -10 -10 -10 -10 -10 -10 -10
-11 -11 -11 -11 -11 -10 -10 -10 -10 -10 -10 -10 -10 -10 -10 -11 -10 -10 -10 -10 -10 -10 -10 -10 -10 -10 -9 -9 -9 -9 -10 -10 -9 -9 -10 -10 -10 -10 -10 -10 -11 -11 -10 -10 -10 -10 -10 -10 -10
-11 -11 -11 -11 -12 -11 -11 -10 -9 -9 -9 -9 -10 -10 -10 -11 -11 -11 -10 -10 -10 -10 -10 -10 -9 -9 -9 -9 -9 -10 -10 -10 -10 -10 -10 -10 -10 -11 -11 -11 -10 -10 -10 -10 -10 -10 -10 -10 -10
-11 -11 -11 -11 -12 -12 -11 -9 -9 -9 -9 -9 -10 -10 -10 -10 -10 -10 -10 -10 -10 -10 -10 -10 -10 -10 -9 -9 -9 -10 -10 -10 -10 -10 -11 -11 -11 -11 -11 -11 -10 -10 -10 -10 -10 -11 -10 -10 -10
-11 -11 -11 -11 -12 -11 -10 -8 -8 -9 -9 -10 -10 -10 -10 -10 -10 -10 -10 -10 -10 -10 -10 -10 -10 -10 -9 -9 -10 -10 -10 -11 -11 -11 -11 -11 -11 -11 -11 -11 -11 -11 -11 -10 -10 -10 -11 -11 -11
-11 -12 -12 -11 -11 -10 -11 -6 -8 -9 -9 -9 -10 -10 -10 -10 -10 -10 -10 -11 -10 -10 -10 -10 -10 -10 -10 -9 -10 -10 -11 -11 -11 -11 -11 -11 -11 -11 -11 -11 -11 -11 -11 -11 -11 -11 -11 -11 -11
-11 -13 -13 -12 -12 -11 -10 -10 -7 -9 -9 -9 -9 -10 -10 -10 -10 -10 -10 -10 -11 -10 -10 -10 -10 -10 -10 -10 -10 -11 -11 -11 -11 -11 -11 -11 -12 -12 -12 -11 -11 -11 -11 -11 -11 -11 -11 -11 -11
-13 -13 -14 -14 -14 -10 -11 -12 -5 -8 -9 -9 -9 -9 -10 -10 -10 -10 -10 -10 -10 -10 -10 -10 -10 -10 -10 -10 -11 -11 -11 -11 -12 -12 -12 -12 -12 -12 -12 -11 -11 -11 -11 -11 -11 -11 -11 -11 -11
-14 -13 -13 -13 -14 -11 -11 -12 -8 -10 -10 -11 -11 -10 -10 -10 -11 -11 -11 -11 -10 -10 -10 -10 -10 -11 -11 -12 -13 -13 -13 -13 -13 -13 -12 -12 -12 -12 -12 -12 -12 -11 -11 -11 -12 -12 -12 -12 -12
-14 -15 -15 -15 -13 -12 -12 -9 -8 -10 -11 -12 -12 -11 -10 -11 -11 -11 -12 -11 -12 -11 -12 -11 -11 -11 -12 -12 -12 -12 -12 -13 -13 -13 -12 -12 -13 -13 -13 -12 -12 -12 -12 -12 -12 -12 -12 -13 -12
-13 -13 -15 -16 -15 -14 -11 -10 -10 -11 -11 -11 -12 -12 -12 -12 -14 -13 -12 -13 -12 -12 -14 -13 -13 -13 -13 -13 -13 -12 -12 -13 -13 -13 -13 -13 -13 -13 -13 -13 -13 -12 -12 -12 -12 -12 -13 -13 -12
-15 -15 -15 -15 -16 -16 -14 -12 -11 -11 -12 -12 -12 -13 -13 -13 -14 -15 -14 -14 -15 -15 -13 -14 -14 -14 -14 -13 -13 -13 -13 -13 -13 -13 -13 -14 -14 -14 -14 -14 -14 -13 -13 -13 -13 -13 -13 -14 -13
-17 -17 -17 -17 -16 -16 -16 -14 -12 -12 -12 -13 -13 -15 -15 -16 -16 -16 -15 -15 -15 -15 -15 -15 -15 -15 -15 -14 -14 -13 -13 -13 -13 -14 -14 -14 -14 -15 -14 -14 -14 -14 -14 -14 -14 -14 -14 -14 -14
-17 -17 -17 -17 -17 -17 -17 -17 -14 -14 -14 -14 -14 -15 -16 -16 -17 -17 -17 -16 -16 -17 -16 -16 -16 -16 -16 -15 -15 -15 -14 -14 -14 -14 -14 -15 -15 -15 -15 -15 -15 -15 -15 -15 -15 -15 -15 -15 -15
Height
5885 5884 5883 5882 5883 5879 5878 5878 5875 5873 5873 5872 5871 5870 5869 5869 5870 5871 5868 5867 5866 5866 5866 5865 5864 5864 5864 5864 5864 5865 5865 5865 5866 5867 5868 5868 5868 5869 5870 5871 5871 5872 5872 5873 5874 5873 5873 5873 5873
5883 5882 5881 5879 5879 5877 5876 5875 5873 5872 5871 5870 5869 5868 5867 5867 5867 5867 5866 5866 5865 5865 5864 5864 5864 5864 5864 5864 5864 5864 5864 5865 5865 5865 5866 5866 5867 5867 5869 5870 5870 5870 5871 5872 5872 5872 5872 5872 5872
5882 5881 5879 5877 5876 5876 5875 5873 5871 5870 5869 5868 5868 5866 5865 5864 5864 5864 5864 5862 5862 5863 5863 5863 5863 5863 5863 5863 5863 5863 5864 5864 5863 5864 5864 5865 5866 5866 5867 5867 5868 5869 5870 5870 5870 5871 5871 5871 5871
5881 5881 5879 5877 5875 5873 5873 5872 5871 5870 5868 5867 5867 5865 5864 5862 5861 5861 5861 5860 5860 5860 5861 5861 5861 5861 5861 5861 5862 5862 5862 5863 5863 5864 5864 5864 5864 5864 5865 5866 5867 5867 5867 5868 5868 5869 5869 5868 5868
5881 5879 5878 5876 5875 5872 5872 5872 5870 5868 5867 5867 5865 5864 5863 5861 5859 5859 5858 5858 5857 5858 5858 5858 5858 5859 5859 5859 5860 5860 5861 5862 5862 5861 5861 5862 5863 5864 5864 5865 5865 5865 5866 5865 5866 5866 5866 5865 5866
5880 5879 5877 5875 5874 5872 5871 5871 5869 5868 5866 5866 5865 5862 5862 5861 5859 5858 5857 5856 5855 5855 5855 5855 5855 5855 5856 5856 5856 5857 5858 5859 5858 5858 5859 5859 5860 5860 5860 5861 5861 5862 5862 5862 5862 5863 5863 5862 5863
5879 5878 5876 5875 5873 5871 5870 5869 5868 5866 5865 5864 5864 5862 5860 5859 5858 5857 5856 5855 5853 5853 5852 5851 5851 5852 5852 5852 5853 5853 5854 5854 5855 5855 5855 5856 5856 5856 5856 5857 5857 5858 5858 5858 5858 5858 5859 5859 5860
5878 5876 5875 5874 5872 5871 5869 5867 5866 5865 5865 5863 5862 5860 5858 5857 5856 5856 5854 5853 5852 5851 5850 5849 5849 5848 5847 5848 5848 5848 5849 5849 5849 5850 5851 5851 5852 5852 5853 5853 5853 5853 5853 5854 5853 5854 5855 5856 5856
5876 5875 5873 5871 5870 5869 5868 5866 5865 5863 5862 5861 5860 5858 5856 5854 5853 5853 5852 5850 5849 5848 5847 5846 5846 5845 5845 5844 5844 5843 5843 5844 5844 5844 5845 5846 5846 5847 5848 5847 5848 5848 5849 5848 5849 5849 5850 5850 5851
5872 5871 5869 5868 5866 5865 5864 5863 5861 5860 5858 5858 5857 5855 5853 5851 5849 5848 5848 5847 5846 5844 5843 5842 5842 5841 5840 5840 5839 5839 5838 5838 5839 5839 5839 5840 5840 5841 5841 5842 5842 5842 5842 5842 5843 5843 5844 5844 5845
5868 5866 5863 5863 5861 5860 5858 5857 5856 5855 5854 5852 5852 5851 5849 5847 5846 5844 5843 5842 5842 5840 5839 5838 5837 5836 5835 5834 5834 5833 5832 5832 5833 5833 5833 5833 5833 5834 5834 5834 5834 5835 5835 5835 5836 5836 5837 5837 5837
5863 5860 5857 5858 5855 5853 5850 5850 5850 5850 5846 5846 5845 5845 5844 5842 5840 5838 5837 5836 5836 5835 5833 5833 5832 5831 5830 5829 5828 5827 5827 5826 5826 5826 5826 5826 5826 5826 5826 5827 5828 5828 5827 5828 5828 5828 5827 5827 5827
5855 5855 5850 5851 5849 5845 5842 5844 5842 5845 5837 5837 5837 5838 5837 5836 5834 5832 5831 5829 5828 5828 5827 5826 5825 5824 5823 5823 5821 5821 5820 5819 5819 5819 5819 5819 5819 5819 5819 5818 5819 5819 5819 5819 5819 5819 5820 5820 5820
5846 5846 5845 5845 5842 5835 5833 5837 5835 5838 5827 5830 5828 5828 5828 5828 5827 5826 5824 5822 5821 5819 5819 5817 5818 5816 5816 5815 5813 5812 5812 5812 5812 5812 5811 5812 5811 5811 5811 5810 5810 5809 5809 5809 5809 5810 5810 5811 5811
5837 5835 5836 5840 5833 5825 5822 5829 5830 5826 5820 5823 5821 5820 5818 5818 5817 5816 5815 5814 5813 5812 5810 5809 5808 5808 5807 5806 5805 5804 5804 5804 5803 5804 5804 5804 5804 5804 5803 5802 5802 5801 5800 5801 5800 5801 5801 5801 5801
5828 5826 5827 5833 5826 5819 5815 5819 5825 5819 5814 5816 5816 5814 5811 5810 5808 5807 5805 5803 5803 5804 5804 5800 5799 5799 5798 5798 5797 5796 5796 5796 5795 5796 5796 5796 5796 5796 5795 5795 5794 5793 5792 5791 5791 5791 5790 5790 5790
5821 5813 5814 5819 5821 5812 5806 5805 5819 5814 5809 5808 5808 5807 5805 5803 5802 5799 5798 5796 5795 5794 5794 5792 5792 5791 5790 5788 5788 5788 5786 5787 5786 5787 5788 5788 5788 5787 5786 5786 5785 5784 5784 5783 5782 5781 5779 5779 5779
5810 5800 5802 5805 5816 5803 5794 5793 5800 5805 5800 5799 5800 5799 5797 5795 5795 5789 5789 5787 5787 5786 5785 5784 5783 5783 5781 5779 5779 5779 5779 5778 5778 5778 5779 5778 5777 5777 5776 5775 5774 5774 5773 5772 5771 5770 5769 5768 5768
5798 5794 5791 5796 5802 5791 5784 5778 5782 5790 5791 5791 5791 5789 5787 5785 5785 5782 5779 5778 5779 5778 5777 5775 5773 5773 5772 5771 5770 5770 5769 5768 5770 5770 5769 5768 5767 5766 5764 5764 5763 5763 5761 5760 5759 5759 5758 5758 5758
5790 5788 5784 5784 5789 5778 5772 5766 5771 5775 5780 5782 5778 5779 5777 5775 5774 5772 5770 5769 5769 5767 5766 5765 5764 5763 5763 5762 5760 5760 5760 5760 5760 5759 5758 5757 5756 5756 5755 5754 5753 5752 5750 5748 5748 5747 5746 5746 5746
5784 5779 5779 5772 5771 5767 5760 5748 5761 5768 5768 5770 5769 5766 5766 5765 5764 5763 5760 5760 5759 5759 5757 5755 5754 5753 5753 5752 5751 5750 5750 5750 5750 5748 5748 5747 5746 5745 5744 5743 5741 5740 5738 5738 5737 5735 5734 5734 5734
5767 5775 5766 5763 5759 5751 5754 5729 5748 5758 5758 5759 5757 5757 5755 5754 5752 5751 5750 5749 5748 5747 5746 5745 5743 5743 5743 5741 5740 5740 5739 5739 5739 5738 5737 5736 5735 5733 5731 5730 5729 5728 5727 5726 5726 5724 5722 5721 5721
5758 5757 5755 5753 5750 5745 5737 5736 5730 5742 5744 5743 5748 5747 5745 5744 5743 5741 5739 5737 5737 5736 5734 5733 5733 5733 5731 5729 5728 5727 5727 5727 5726 5726 5726 5725 5723 5721 5719 5717 5716 5715 5714 5713 5713 5712 5710 5709 5708
5746 5745 5742 5740 5736 5732 5734 5735 5722 5724 5726 5730 5731 5734 5732 5732 5729 5729 5729 5728 5725 5724 5722 5721 5720 5718 5718 5717 5716 5716 5716 5715 5715 5715 5715 5715 5713 5709 5705 5702 5701 5700 5699 5699 5699 5699 5698 5697 5695
5736 5733 5725 5720 5717 5719 5725 5723 5721 5715 5715 5717 5718 5719 5719 5718 5716 5713 5715 5716 5716 5714 5710 5708 5708 5708 5706 5705 5704 5704 5704 5703 5702 5702 5701 5700 5700 5698 5695 5692 5688 5685 5684 5684 5685 5684 5684 5683 5682
5719 5717 5711 5702 5706 5708 5710 5704 5710 5710 5707 5705 5699 5700 5701 5701 5703 5703 5699 5700 5698 5701 5701 5699 5697 5695 5694 5695 5695 5694 5693 5691 5688 5687 5685 5686 5684 5683 5681 5680 5678 5676 5674 5671 5668 5666 5666 5667 5666
5707 5699 5701 5687 5689 5685 5692 5695 5698 5698 5695 5691 5688 5686 5684 5687 5688 5687 5688 5687 5686 5685 5686 5688 5686 5684 5684 5684 5684 5683 5681 5679 5676 5675 5673 5670 5668 5667 5665 5664 5664 5663 5661 5658 5655 5653 5651 5648 5647
5686 5689 5683 5673 5665 5663 5672 5675 5679 5684 5681 5678 5677 5678 5676 5674 5674 5675 5674 5675 5673 5671 5673 5671 5670 5670 5671 5670 5669 5668 5667 5665 5662 5662 5660 5657 5654 5653 5652 5649 5648 5647 5646 5644 5642 5641 5639 5636 5632
5670 5666 5663 5658 5650 5641 5641 5653 5678 5667 5667 5666 5667 5664 5663 5662 5662 5662 5661 5660 5656 5655 5654 5654 5654 5655 5656 5656 5655 5652 5650 5651 5649 5647 5646 5644 5640 5638 5636 5636 5634 5632 5629 5628 5627 5624 5620 5618 5616
5652 5649 5649 5637 5637 5632 5623 5619 5665 5659 5654 5653 5650 5649 5647 5644 5647 5647 5644 5639 5638 5639 5641 5640 5638 5636 5638 5638 5638 5637 5635 5633 5633 5632 5630 5626 5625 5623 5622 5620 5619 5616 5615 5614 5609 5606 5602 5598 5595
Wind_Speed
15 16 16 17 17 18 16 16 15 16 13 11 12 13 13 13 9 7 7 7 9 9 8 7 7 5 4 3 2 2 3 3 4 4 4 3 3 2 2 1 3 4 5 5 4 3 4 8 12
11 12 12 14 14 13 12 10 10 9 9 10 11 12 13 14 13 11 10 10 11 10 11 10 10 9 7 6 6 5 2 3 3 2 0 0 0 1 2 3 3 4 5 6 6 5 4 5 7
9 10 12 12 13 11 10 10 10 9 10 11 13 13 13 13 12 12 13 13 13 11 11 12 13 13 12 12 9 7 7 6 6 7 6 5 5 4 5 6 7 6 6 8 8 9 8 9 9
8 9 11 13 13 12 9 7 8 8 10 11 11 13 14 12 13 12 13 14 15 15 14 13 13 14 15 15 14 13 12 10 10 10 10 9 9 8 9 9 10 11 12 13 14 14 14 13 12
8 8 9 11 11 13 14 10 10 10 10 11 13 13 13 13 14 12 12 13 15 15 16 16 16 15 16 17 18 17 16 15 14 13 13 13 12 12 13 14 15 16 16 17 18 18 18 17 16
8 8 9 9 9 9 11 11 11 10 11 12 13 15 15 13 12 12 11 11 12 12 15 17 18 18 18 18 20 20 21 19 17 16 16 16 16 17 16 17 17 18 18 19 19 20 20 19 16
11 10 9 9 9 9 10 12 11 11 12 12 12 13 15 14 12 12 11 11 12 12 13 15 17 19 20 21 21 21 23 23 22 20 19 19 19 20 21 22 21 20 20 20 21 20 19 17 17
13 13 12 12 12 11 12 12 12 12 12 12 13 13 15 13 12 10 10 10 11 11 12 13 15 16 19 20 22 23 23 24 25 23 22 22 23 24 25 26 26 25 25 25 25 24 23 22 21
20 19 19 18 16 15 14 15 15 14 14 15 11 14 13 13 12 12 13 12 13 12 11 11 12 14 16 18 20 22 24 25 26 27 27 27 26 26 27 27 27 28 29 27 28 29 30 31 30
26 26 27 24 25 23 22 20 19 18 17 18 17 19 18 17 16 15 14 14 15 15 14 15 15 15 15 17 20 21 23 25 27 29 30 30 30 29 29 30 30 31 31 31 31 32 33 35 36
31 31 32 30 30 29 29 29 27 23 19 24 22 21 21 24 22 21 19 19 18 18 18 19 19 19 20 20 20 21 23 27 29 31 32 33 34 33 33 34 35 35 35 36 36 37 37 38 38
32 32 35 33 34 33 34 34 33 32 23 28 28 26 25 26 27 27 26 24 25 22 23 23 23 21 20 21 23 23 25 26 27 29 32 33 35 37 37 37 37 37 37 37 37 40 41 41 41
36 34 36 35 36 36 39 35 37 30 33 33 32 30 30 29 28 30 30 31 30 27 28 28 26 25 23 22 25 25 27 28 27 27 28 29 32 34 37 39 40 40 39 41 41 41 42 42 43
36 36 35 34 34 40 42 35 34 24 37 34 35 34 32 31 32 32 32 34 32 33 31 31 28 28 27 27 29 28 29 29 27 28 28 29 30 32 35 37 39 40 42 44 44 44 44 45 45
36 37 34 27 32 41 42 31 25 27 36 33 33 33 35 33 34 34 34 35 35 35 35 34 32 31 30 30 31 30 28 29 28 28 29 30 30 32 34 34 36 38 40 42 44 46 45 47 48
39 39 34 24 32 39 41 34 21 27 33 30 30 30 29 28 30 31 33 35 34 33 34 36 35 32 33 33 33 34 31 29 29 30 29 29 29 30 30 31 32 35 37 39 40 43 45 47 48
37 42 40 34 31 39 44 44 29 32 36 32 27 29 28 28 29 33 34 34 34 33 33 35 35 33 34 36 33 32 31 30 31 31 30 30 31 32 33 34 35 35 37 39 40 43 44 45 48
42 49 47 43 31 43 50 49 42 35 39 36 31 29 29 30 30 36 33 31 30 31 32 34 34 34 37 38 35 34 33 33 32 31 31 31 31 32 32 33 35 38 39 39 40 42 44 45 47
48 51 53 47 38 48 52 55 50 41 38 36 36 33 29 29 27 32 34 31 28 30 33 35 36 37 37 36 36 35 35 35 33 33 32 34 35 35 34 35 36 36 37 40 41 42 44 45 45
49 50 51 49 44 51 55 56 53 47 41 34 34 31 30 32 32 33 34 34 33 33 32 34 37 38 36 37 36 35 35 34 34 35 37 38 38 37 37 38 37 37 38 39 40 42 43 45 46
47 50 49 54 52 53 55 58 49 42 39 36 35 34 33 33 35 34 35 36 36 35 37 35 35 35 35 36 35 35 35 36 37 38 41 41 40 41 42 42 42 41 41 40 42 43 44 44 45
51 44 50 54 56 58 54 57 48 42 43 39 39 34 29 32 32 33 34 36 38 39 38 38 39 41 37 38 39 38 39 39 41 43 42 41 41 43 44 44 45 44 43 43 44 45 45 45 45
51 49 50 52 56 59 61 62 56 48 42 42 32 34 33 28 31 33 35 39 38 38 39 38 36 39 42 43 43 41 40 41 42 42 43 43 44 46 46 48 47 47 47 48 48 47 46 46 46
50 52 48 50 54 62 57 56 49 53 49 44 45 40 41 36 33 34 33 34 36 38 41 43 43 44 46 45 43 41 41 44 46 46 45 45 46 50 51 51 51 52 54 53 51 51 49 48 48
48 51 57 62 60 62 61 58 52 55 58 56 53 50 45 44 45 41 36 33 37 39 42 45 45 46 46 42 39 40 43 47 49 49 49 48 49 53 57 57 57 56 58 57 57 56 56 54 55
57 57 61 65 65 65 63 67 54 60 59 61 60 57 61 51 48 48 39 37 35 30 35 39 40 42 45 45 47 47 49 51 53 53 54 54 48 49 54 59 62 63 63 60 57 55 54 54 55
62 65 60 62 64 69 70 70 62 61 61 65 61 56 60 62 47 49 40 31 36 42 38 36 44 46 46 46 48 51 53 55 57 57 53 52 49 49 52 57 60 61 62 61 60 60 57 53 54
58 56 60 66 70 71 70 71 68 63 62 65 64 58 58 58 54 25 25 33 43 52 46 45 47 54 56 51 52 56 58 56 59 59 56 54 52 50 52 57 58 59 58 59 58 54 57 59 60
51 55 58 63 71 74 75 67 55 61 62 62 58 57 56 50 50 47 52 51 58 52 45 45 52 53 56 57 54 56 57 58 58 59 61 60 54 51 53 56 56 58 57 56 57 58 57 61 65
61 54 50 55 58 66 75 78 44 55 55 57 61 57 54 56 47 50 53 55 56 49 47 55 57 57 62 62 57 56 57 57 58 60 58 56 55 55 55 54 54 56 51 57 58 62 62 64 68
Wind_Direction
306 307 307 305 307 307 313 316 307 302 311 321 322 324 321 316 314 306 299 298 289 292 289 297 305 312 311 301 312 110 101 94 90 82 90 94 78 50 31 344 295 289 289 277 273 274 286 274 266
312 317 316 312 315 329 328 320 308 311 322 331 325 323 315 307 300 296 287 280 279 283 282 280 277 287 286 280 276 281 249 274 299 289 268 212 341 337 316 303 306 304 301 290 281 272 267 265 268
337 339 331 329 338 347 338 335 332 339 345 342 335 328 319 312 304 288 277 275 273 274 274 274 273 269 267 273 269 264 265 260 272 285 286 283 286 291 300 306 306 301 292 288 294 289 274 267 275
349 351 347 351 359 352 2 348 338 342 340 348 346 344 341 334 308 294 280 269 264 261 265 268 267 267 267 265 267 269 269 265 262 258 258 262 269 279 282 284 286 293 294 294 289 283 279 280 279
354 353 346 352 3 354 3 357 356 352 344 346 342 342 349 344 332 321 302 292 281 268 260 259 261 263 264 267 269 269 268 264 263 266 267 267 264 260 262 272 277 279 280 283 282 281 280 279 283
342 352 344 342 346 342 343 343 357 357 343 343 343 333 335 343 342 336 326 306 289 280 271 264 261 264 264 263 266 269 270 266 261 264 269 274 276 275 272 271 273 276 279 282 282 279 277 276 277
327 330 334 331 325 315 327 327 340 341 336 337 344 335 326 323 335 335 333 327 317 304 286 273 268 266 269 268 265 266 268 268 265 262 263 268 272 273 271 267 269 275 280 283 285 283 274 269 275
318 321 322 320 322 321 321 319 324 326 330 329 338 332 326 325 318 320 323 326 322 315 305 296 285 274 271 268 266 264 263 261 262 265 266 265 264 264 265 267 268 272 278 279 278 274 268 267 271
309 311 310 313 315 314 313 313 315 315 316 320 331 327 328 322 316 308 304 301 298 299 299 298 295 287 281 275 268 264 262 262 262 263 267 268 267 264 262 262 264 265 266 267 269 266 265 267 265
298 302 301 305 307 308 308 306 305 306 308 300 305 310 311 308 309 309 304 301 298 294 288 287 287 287 288 285 279 272 265 262 260 261 263 265 266 266 265 265 267 269 268 268 270 271 270 266 266
293 296 296 300 300 301 300 300 300 300 297 293 295 294 297 298 298 295 294 293 291 294 293 291 293 291 285 280 277 276 273 267 264 264 264 265 268 270 269 269 270 269 268 269 268 269 271 271 268
287 290 290 293 295 294 291 293 293 299 287 287 292 289 288 284 286 289 290 288 285 288 287 287 285 287 285 282 277 274 272 271 270 268 267 269 271 272 272 272 272 272 272 271 271 271 271 272 271
288 285 288 289 291 288 287 290 294 300 285 289 286 284 283 281 279 278 281 283 283 282 282 284 286 283 281 284 281 274 269 268 268 268 269 271 271 271 272 274 273 272 270 270 271 270 267 267 267
289 287 285 289 289 285 284 287 293 296 283 284 284 285 282 279 274 273 273 272 277 277 278 279 281 280 280 283 280 276 271 269 268 266 268 270 271 273 275 274 274 274 273 271 270 271 272 269 268
290 289 290 295 281 281 284 286 293 288 291 291 290 288 286 284 278 276 273 272 271 271 274 276 274 276 277 278 278 275 273 270 269 268 269 273 273 272 273 275 276 275 275 273 272 271 270 268 267
291 292 292 276 278 283 282 288 283 284 287 288 287 285 287 284 281 280 275 274 273 272 271 271 274 274 276 278 275 275 273 268 269 270 272 274 277 277 277 277 276 275 275 275 274 272 271 269 267
298 294 286 282 285 287 285 287 288 282 285 289 280 279 278 278 279 275 275 276 273 270 268 268 272 273 274 275 273 274 274 271 271 274 276 280 282 282 281 279 277 276 277 276 275 271 269 268 266
287 284 286 288 290 283 282 283 281 278 281 284 290 287 283 276 274 274 275 270 269 271 275 275 275 273 273 275 277 276 274 271 271 276 281 285 284 284 282 279 278 276 277 274 274 271 269 268 270
283 285 288 293 295 286 283 281 283 280 278 285 283 284 286 283 279 275 272 273 273 274 277 277 274 272 272 273 275 274 268 267 272 277 283 282 284 284 283 281 279 278 275 273 272 272 271 269 268
282 288 288 290 291 280 282 284 286 289 289 287 285 282 281 280 278 277 276 276 271 275 274 270 267 267 269 274 271 269 267 269 273 279 282 286 286 284 282 282 282 281 280 277 273 272 272 271 270
278 280 288 285 285 280 286 283 286 291 292 292 289 284 285 278 276 274 270 270 268 274 271 271 266 265 269 272 272 271 271 273 275 279 285 286 285 285 285 284 282 280 279 278 278 276 274 272 271
272 278 275 279 281 284 280 285 284 293 291 289 284 281 279 280 278 271 269 268 269 272 270 271 266 265 269 269 269 268 268 272 276 280 281 283 285 285 285 284 281 279 279 279 278 275 274 272 270
273 271 272 274 277 278 278 285 297 294 293 288 287 287 282 276 275 273 272 272 274 271 269 266 264 261 264 266 266 267 272 273 274 275 278 280 283 285 284 284 282 281 281 281 281 280 277 274 272
274 273 274 272 271 271 274 282 290 294 288 289 289 287 290 285 272 270 274 275 276 271 269 264 259 257 260 262 265 268 269 271 273 276 280 282 284 283 282 278 279 280 281 281 281 282 280 276 276
274 273 273 271 269 269 275 274 278 280 289 290 290 286 284 284 286 278 280 270 268 269 268 267 266 264 262 262 265 270 271 273 276 279 280 279 282 281 280 278 278 277 277 279 281 281 281 280 279
269 267 268 270 272 276 273 272 275 283 285 286 287 289 288 285 282 281 291 285 268 268 264 263 262 261 261 265 270 273 275 276 278 280 281 283 280 276 275 274 276 279 280 280 280 280 279 280 281
272 269 272 267 267 270 273 272 272 276 278 279 281 285 288 293 296 296 288 256 270 287 286 258 254 261 262 264 269 272 270 272 274 276 279 280 276 272 271 271 272 272 274 277 278 279 278 280 278
278 275 271 269 268 267 267 267 268 272 275 274 278 287 291 291 295 272 257 254 262 280 280 267 257 258 264 270 268 267 270 272 274 277 278 276 274 272 269 268 270 272 273 273 274 276 280 283 283
278 279 275 269 263 265 267 260 263 268 272 281 284 283 283 281 284 274 278 282 281 281 264 269 261 267 264 274 273 270 271 272 274 275 276 277 275 270 270 272 274 271 271 272 278 283 285 284 282
274 277 276 275 275 274 270 266 257 265 268 270 272 278 282 284 291 280 277 279 280 272 253 264 272 269 273 277 275 272 273 276 277 276 275 272 272 272 274 274 275 274 274 283 281 279 285 284 283